Regional Weather Roundup
Issued by NWS

Home | Current Version | Previous Version | Text Only | Print | Product List | Glossary Off
Versions: 1 2 3 4 5 6 7 8 9 10 11 12 13 14 15 16 17 18 19 20 21 22 23 24 25 26 27 28 29 30 31 32 33 34 35 36 37 38 39 40 41 42 43 44 45 46 47 48 49 50

000
ASUS44 KMEG 202300
RWRTN
TENNESSEE HOURLY STATE WEATHER ROUNDUP
NATIONAL WEATHER SERVICE MEMPHIS TN
500 PM CST THU NOV 20 2014

TNZ002-004-019-021-049-052-054-088>092-210000-
WEST TENNESSEE

CITY           SKY/WX    TMP DP  RH WIND       PRES   REMARKS
MEMPHIS INTL   MOCLDY    54  25  32 E5        30.19S
NWS MEMPHIS      N/A     50 N/A N/A MISG        N/A
JACKSON        CLOUDY    45  24  43 CALM      30.22S
DYERSBURG      PTCLDY    45  18  33 CALM      30.24R
UNION CITY     CLEAR     39  21  48 NE3       30.22R
PARIS          CLEAR     37  21  52 CALM      30.23R
LEXINGTON      CLEAR     43  23  45 CALM      30.21F
SAVANNAH       CLEAR     45  28  53 CALM      30.22S
$$

TNZ008-025-027-028-033-062-065-066-210000-
NORTH MIDDLE TENNESSEE

CITY           SKY/WX    TMP DP  RH WIND       PRES   REMARKS
NASHVILLE      CLEAR     45  18  34 SW3       30.22S
CLARKSVILLE    CLEAR     41  18  39 NW5       30.22R
COOKEVILLE     CLEAR     37  21  52 W3        30.19S
CROSSVILLE     CLEAR     41  22  46 W8        30.17R
$$

TNZ061-075-076-078-094-096-097-210000-
SOUTH MIDDLE TENNESSEE

CITY           SKY/WX    TMP DP  RH WIND       PRES   REMARKS
TULLAHOMA      CLEAR     45  21  39 N3        30.21S
WINCHESTER     CLEAR     46  25  42 CALM      30.21R
SHELBYVILLE    CLEAR     45  23  42 NW3       30.23R
$$

TNZ017-018-042-046-047-210000-
NORTHEAST TENNESSEE

CITY           SKY/WX    TMP DP  RH WIND       PRES   REMARKS
TRI CITIES     CLEAR     43  26  51 W8        30.10R
ELIZABETHTON   CLEAR     41  23  48 W5        30.10S
$$

TNZ012-013-036-069-073-074-210000-
CENTRAL EAST TENNESSEE

CITY           SKY/WX    TMP DP  RH WIND       PRES   REMARKS
KNOXVILLE      CLEAR     47  22  37 W13       30.16R
OAK RIDGE      CLEAR     47  21  35 VRB3      30.17R
GATLINBURG     CLEAR     46  25  42 W7        30.15R
$$

TNZ083-085-099-210000-
SOUTHEAST TENNESSEE

CITY           SKY/WX    TMP DP  RH WIND       PRES   REMARKS
CHATTANOOGA    PTCLDY    52  26  36 W6        30.20R
$$

SKY/WX REPORTED AS FAIR MEANS FEW OR NO CLOUDS BELOW
12 THOUSAND FEET.




USA.gov is the U.S. government's official web portal to all federal, state and local government web resources and services.